Weather History for Chippewa, MI

Change the Weather History Date:

Saturday, August 11, 2012

  Actual Average Record
Temperature  
Mean Temperature 68 °F -  
Max Temperature 75 °F 75 °F 82 °F (1992)
Min Temperature 60 °F 48 °F 39 °F (1982)
Cooling Degree Days 2    
Growing Degree Days 18 (Base 50)    
Moisture  
Dew Point 53 °F    
Average Humidity 61    
Maximum Humidity 73    
Minimum Humidity 44    
Precipitation  
Precipitation 0.00 in - - ()
Sea Level Pressure  
Sea Level Pressure 29.89 in    
Wind  
Wind Speed 10 mph (NNW)    
Max Wind Speed 20 mph    
Max Gust Speed 26 mph    
Visibility 10 miles    
Events      
Averages and records for this station are not official NWS values.
T = Trace of Precipitation, MM = Missing Value Source: NWS Daily Summary

Daily Weather History Graph

Daily Weather History Graph

Search for Another Location

Airport:

Trip Planner

Search our weather history database for the weather conditions in past years. The results will help you decide how hot, cold, wet, or windy it might be!

Date:

Astronomy

Aug. 11, 2012 Rise Set
Actual Time 6:32 AM EDT 8:52 PM EDT
Civil Twilight 5:59 AM EDT 9:25 PM EDT
Nautical Twilight 5:17 AM EDT 10:07 PM EDT
Astronomical Twilight 4:30 AM EDT 10:53 PM EDT
Moon 12:54 AM EDT (8/11) 4:33 PM EDT (8/11)
Length of Visible Light 15h 26m
Length of Day
14h 20m
Waning Crescent, 33% of the Moon is Illuminated
Aug 11
Waning Crescent
Aug 17
New
Aug 24
First Quarter
Aug 31
Full
Sep 8
Last Quarter

Hourly Weather History & Observations

Time (EDT) Temp. Dew Point Humidity Pressure Visibility Wind Dir Wind Speed Gust Speed Precip Events Conditions
12:15 AM 64.4 °F 51.8 °F 64% 29.90 in 10.0 mi NNW 6.9 mph - N/A   Overcast
12:35 AM 64.4 °F 51.8 °F 64% 29.90 in 10.0 mi NNW 8.1 mph - N/A   Overcast
12:55 AM 64.4 °F 51.8 °F 64% 29.90 in 10.0 mi NNW 9.2 mph - N/A   Overcast
1:15 AM 64.4 °F 51.8 °F 64% 29.89 in 10.0 mi NNW 9.2 mph - N/A   Partly Cloudy
1:35 AM 64.4 °F 51.8 °F 64% 29.89 in 10.0 mi NNW 9.2 mph - N/A   Partly Cloudy
1:55 AM 64.4 °F 50.0 °F 59% 29.88 in 10.0 mi NNW 10.4 mph - N/A   Partly Cloudy
2:15 AM 64.4 °F 50.0 °F 59% 29.88 in 10.0 mi NNW 9.2 mph - N/A   Clear
2:35 AM 62.6 °F 50.0 °F 63% 29.87 in 10.0 mi NNW 8.1 mph - N/A   Mostly Cloudy
2:55 AM 62.6 °F 48.2 °F 59% 29.87 in 10.0 mi North 9.2 mph - N/A   Partly Cloudy
3:15 AM 62.6 °F 48.2 °F 59% 29.87 in 10.0 mi North 10.4 mph - N/A   Mostly Cloudy
3:35 AM 62.6 °F 48.2 °F 59% 29.88 in 10.0 mi North 11.5 mph - N/A   Overcast
3:55 AM 62.6 °F 48.2 °F 59% 29.88 in 10.0 mi North 10.4 mph - N/A   Mostly Cloudy
4:15 AM 62.6 °F 48.2 °F 59% 29.88 in 10.0 mi North 10.4 mph - N/A   Partly Cloudy
4:35 AM 62.6 °F 48.2 °F 59% 29.88 in 10.0 mi NNW 9.2 mph - N/A   Clear
4:55 AM 62.6 °F 48.2 °F 59% 29.88 in 10.0 mi North 8.1 mph - N/A   Clear
5:15 AM 62.6 °F 48.2 °F 59% 29.88 in 10.0 mi NNW 9.2 mph - N/A   Partly Cloudy
5:35 AM 60.8 °F 50.0 °F 68% 29.88 in 10.0 mi NNW 9.2 mph - N/A   Partly Cloudy
5:55 AM 60.8 °F 50.0 °F 68% 29.89 in 10.0 mi North 6.9 mph - N/A   Clear
6:15 AM 60.8 °F 50.0 °F 68% 29.89 in 10.0 mi NNW 10.4 mph - N/A   Clear
6:35 AM 60.8 °F 50.0 °F 68% 29.89 in 10.0 mi North 8.1 mph - N/A   Clear
6:55 AM 60.8 °F 50.0 °F 68% 29.90 in 10.0 mi NNW 8.1 mph - N/A   Clear
7:15 AM 60.8 °F 50.0 °F 68% 29.90 in 10.0 mi North 6.9 mph - N/A   Clear
7:35 AM 60.8 °F 50.0 °F 68% 29.90 in 10.0 mi NNW 8.1 mph - N/A   Clear
8:15 AM 60.8 °F 51.8 °F 72% 29.90 in 10.0 mi NNW 8.1 mph - N/A   Scattered Clouds
8:35 AM 60.8 °F 51.8 °F 72% 29.90 in 10.0 mi NNW 11.5 mph - N/A   Partly Cloudy
8:55 AM 60.8 °F 51.8 °F 72% 29.90 in 10.0 mi NNW 9.2 mph - N/A   Mostly Cloudy
9:15 AM 62.6 °F 51.8 °F 68% 29.90 in 10.0 mi NNW 9.2 mph - N/A   Overcast
9:35 AM 62.6 °F 51.8 °F 68% 29.90 in 10.0 mi NNW 11.5 mph - N/A   Overcast
9:55 AM 62.6 °F 51.8 °F 68% 29.90 in 10.0 mi NNW 9.2 mph - N/A   Overcast
10:15 AM 62.6 °F 51.8 °F 68% 29.90 in 10.0 mi NNW 11.5 mph - N/A   Overcast
10:35 AM 64.4 °F 53.6 °F 68% 29.90 in 10.0 mi NNW 11.5 mph - N/A   Overcast
10:55 AM 64.4 °F 53.6 °F 68% 29.90 in 10.0 mi NNW 10.4 mph - N/A   Overcast
11:15 AM 64.4 °F 53.6 °F 68% 29.90 in 10.0 mi NNW 9.2 mph - N/A   Overcast
11:35 AM 66.2 °F 55.4 °F 68% 29.89 in 10.0 mi NNW 10.4 mph - N/A   Overcast
11:55 AM 68.0 °F 53.6 °F 60% 29.89 in 10.0 mi NNW 13.8 mph 20.7 mph N/A   Mostly Cloudy
12:15 PM 68.0 °F 53.6 °F 60% 29.88 in 10.0 mi North 12.7 mph 18.4 mph N/A   Overcast
12:35 PM 69.8 °F 53.6 °F 56% 29.87 in 10.0 mi NNW 17.3 mph 21.9 mph N/A   Overcast
12:55 PM 71.6 °F 53.6 °F 53% 29.87 in 10.0 mi NW 17.3 mph 23.0 mph N/A   Mostly Cloudy
1:15 PM 71.6 °F 53.6 °F 53% 29.86 in 10.0 mi NNW 13.8 mph 21.9 mph N/A   Mostly Cloudy
1:35 PM 73.4 °F 53.6 °F 50% 29.85 in 10.0 mi NW 16.1 mph 24.2 mph N/A   Clear
1:55 PM 75.2 °F 53.6 °F 47% 29.86 in 10.0 mi NW 15.0 mph 24.2 mph N/A   Clear
2:15 PM 73.4 °F 53.6 °F 50% 29.85 in 10.0 mi NW 17.3 mph 26.5 mph N/A   Scattered Clouds
2:35 PM 75.2 °F 53.6 °F 47% 29.86 in 10.0 mi NNW 16.1 mph 21.9 mph N/A   Mostly Cloudy
2:55 PM 73.4 °F 53.6 °F 50% 29.85 in 10.0 mi NW 19.6 mph 24.2 mph N/A   Partly Cloudy
3:15 PM 75.2 °F 51.8 °F 44% 29.86 in 10.0 mi NNW 17.3 mph 21.9 mph N/A   Scattered Clouds
3:35 PM 75.2 °F 51.8 °F 44% 29.86 in 10.0 mi NNW 17.3 mph 21.9 mph N/A   Mostly Cloudy
3:55 PM 75.2 °F 53.6 °F 47% 29.86 in 10.0 mi NW 18.4 mph 21.9 mph N/A   Overcast
4:15 PM 75.2 °F 53.6 °F 47% 29.86 in 10.0 mi NW 13.8 mph 23.0 mph N/A   Overcast
4:35 PM 75.2 °F 53.6 °F 47% 29.87 in 10.0 mi NNW 16.1 mph 23.0 mph N/A   Overcast
4:55 PM 73.4 °F 53.6 °F 50% 29.87 in 10.0 mi NNW 15.0 mph 24.2 mph N/A   Overcast
5:15 PM 73.4 °F 55.4 °F 53% 29.87 in 10.0 mi NNW 18.4 mph 26.5 mph N/A   Overcast
5:35 PM 73.4 °F 57.2 °F 57% 29.88 in 10.0 mi NNW 12.7 mph 21.9 mph N/A   Mostly Cloudy
5:55 PM 73.4 °F 59.0 °F 61% 29.88 in 10.0 mi NNW 10.4 mph 19.6 mph N/A   Overcast
6:15 PM 73.4 °F 51.8 °F 47% 29.89 in 10.0 mi ENE 6.9 mph - N/A   Overcast
6:35 PM 73.4 °F 51.8 °F 47% 29.89 in 10.0 mi East 8.1 mph - N/A   Overcast
7:15 PM 71.6 °F 53.6 °F 53% 29.90 in 10.0 mi ESE 3.5 mph - N/A   Overcast
7:35 PM 71.6 °F 53.6 °F 53% 29.90 in 10.0 mi Calm Calm - N/A   Overcast
7:55 PM 71.6 °F 53.6 °F 53% 29.90 in 10.0 mi NW 4.6 mph - N/A   Overcast
8:15 PM 69.8 °F 59.0 °F 68% 29.90 in 10.0 mi NW 8.1 mph - N/A   Overcast
8:35 PM 69.8 °F 59.0 °F 68% 29.90 in 10.0 mi NW 9.2 mph - N/A   Overcast
8:55 PM 68.0 °F 59.0 °F 73% 29.91 in 10.0 mi NW 9.2 mph - N/A   Overcast
9:15 PM 68.0 °F 59.0 °F 73% 29.91 in 10.0 mi NW 8.1 mph - N/A   Overcast
9:35 PM 66.2 °F 57.2 °F 73% 29.92 in 10.0 mi NW 8.1 mph - N/A   Overcast
9:55 PM 66.2 °F 57.2 °F 73% 29.91 in 10.0 mi WNW 10.4 mph - N/A   Overcast
10:15 PM 66.2 °F 57.2 °F 73% 29.92 in 10.0 mi WNW 9.2 mph 16.1 mph N/A   Overcast
10:35 PM 66.2 °F 57.2 °F 73% 29.91 in 10.0 mi WNW 10.4 mph - N/A   Overcast
10:55 PM 66.2 °F 57.2 °F 73% 29.91 in 10.0 mi NW 9.2 mph - N/A   Overcast
11:15 PM 66.2 °F 57.2 °F 73% 29.91 in 10.0 mi NW 13.8 mph - N/A   Overcast
11:35 PM 66.2 °F 57.2 °F 73% 29.91 in 10.0 mi NW 12.7 mph - N/A   Overcast
11:55 PM 66.2 °F 57.2 °F 73% 29.92 in 10.0 mi WNW 13.8 mph 17.3 mph N/A   Overcast